Regional Weather Roundup
Issued by NWS Sterling, VA

Home | Current Version | Previous Version | Graphics & Text | Print | Product List | Glossary On
Versions: 1 2 3 4 5 6 7 8 9 10 11 12 13 14 15 16 17 18 19 20 21 22 23 24 25 26 27 28 29 30 31 32 33 34 35 36 37 38 39 40 41 42 43 44 45 46 47 48 49 50
000
ASUS41 KLWX 252010
RWRLWX

REGIONAL WEATHER ROUNDUP
NATIONAL WEATHER SERVICE BALTIMORE MD/WASHINGTON DC
300 PM EST SUN JAN 25 2015

Note: "FAIR" indicates few or no clouds below 12,000 feet
with no significant weather and/or obstructions to visibility.
 TC=TEMPERATURE CELSIUS

 * =Non NWS site. Station does not report precipitation (e.g. rain,
    snow, etc.), thunder, or fog.

DCZ001-MDZ009-015-VAZ040>042-051-053>054-252100-
WASHINGTON METRO

CITY           SKY/WX    TMP DP  RH WIND       PRES   REMARKS
WASHINGTON NAT PTSUNNY   50  31  48 SW7       29.83S
DULLES         CLOUDY    46  31  55 S8        29.81S
ANDREWS AFB    PTSUNNY   49  31  49 W5        29.81F
FT BELVOIR     PTSUNNY   49  30  48 VRB6      29.83F
QUANTICO       PTSUNNY   45  32  60 SW5       29.84F
COLLEGE PARK*  PTSUNNY   50  32  50 S6        29.81S
LEESBURG*      CLOUDY    46  34  61 S9        29.81S
MANASSAS*      SUNNY     48  32  53 SW7       29.82F
GAITHERSBURG*  CLOUDY    46  30  53 W7        29.84R

$$

MDZ006>007-011-014-252100-
BALTIMORE METRO

CITY           SKY/WX    TMP DP  RH WIND       PRES   REMARKS
BWI AIRPORT    CLOUDY    49  30  48 W7        29.80F
MD SCIENCE CTR   N/A     49  30  48 MISG      29.81
MARTIN STATE   MOSUNNY   50  34  53 W6        29.82F
ANNAPOLIS      PTSUNNY   48  29  47 NW5       29.81F
FORT MEADE*    CLOUDY    48  30  49 NW6       29.83S

$$

MDZ012-015-019>023-252100-
MARYLAND EASTERN SHORE

CITY           SKY/WX    TMP DP  RH WIND       PRES   REMARKS
OCEAN CITY     MOSUNNY   49  31  49 W6        29.85R
SALISBURY      PTSUNNY   50  31  48 SW9       29.84S
BAY BRIDGE AP*   N/A     48  28  46 CALM      29.82F
CAMBRIDGE*     FAIR      52  32  46 SW5       29.83S
EASTON*        MOSUNNY   50  32  50 SW7       29.86S

$$

MDZ017>025-252100-
SOUTHERN MARYLAND

CITY           SKY/WX    TMP DP  RH WIND       PRES   REMARKS
PATUXENT RIVER PTSUNNY   50  28  42 SW7       29.83F
ST INIGOES     SUNNY     49  30  48 SE6       29.83F
LEONARDTOWN*   SUNNY     48  30  49 SW6       29.84F

$$

MDZ003>005-252100-
NORTH CENTRAL MARYLAND

CITY           SKY/WX    TMP DP  RH WIND       PRES   REMARKS
FREDERICK*     MOSUNNY   48  28  46 SW7       29.82F
HAGERSTOWN APT CLOUDY    42  30  62 E5        29.78F
WESTMINSTER*   CLOUDY    43  34  70 W6        29.78F

$$

MDZ501>502-252100-
WESTERN MARYLAND

CITY           SKY/WX    TMP DP  RH WIND       PRES   REMARKS
OAKLAND*       CLOUDY    32 N/A N/A SW3       29.71S FOG
CUMBERLAND*    CLOUDY    43  32  65 CALM      29.82S

$$

VAZ025>031-252100-
SHENANDOAH VALLEY

CITY           SKY/WX    TMP DP  RH WIND       PRES   REMARKS
WINCHESTER*    CLOUDY    45  28  53 CALM      29.78S
FRONT ROYAL*   CLOUDY    43  32  65 CALM      29.77F
LURAY*         FAIR      45  34  65 SW8       29.79R
NEW MARKET*    FAIR      43  33  66 S6        29.78R
STAUNTON*      CLOUDY    45  32  61 SW8       29.81S
WAYNESBORO*    FAIR      44  32  62 SW6       29.78F

$$

WVZ021-048>050-054>055-252100-
EASTERN WEST VIRGINIA PANHANDLE

CITY           SKY/WX    TMP DP  RH WIND       PRES   REMARKS
MARTINSBURG    CLOUDY    45  30  55 S3        29.79S
PETERSBURG*    CLOUDY    47  31  54 S5        29.77R

$$

VAZ036>039-050-252100-
CENTRAL FOOTHILLS

CITY           SKY/WX    TMP DP  RH WIND       PRES   REMARKS
CHARLOTTESVILL CLOUDY    47  32  56 SW6       29.81R
CULPEPER*      CLOUDY    48  34  57 S6        29.82S
ORANGE*        CLOUDY    48  34  57 S9        29.83S
GORDONSVILLE*  FAIR      47  32  57 CALM      29.81S
WARRENTON*     CLOUDY    48  37  66 SW5       29.81S

$$

VAZ055>057-252100-
NORTH AND CENTRAL PIEDMONT

CITY           SKY/WX    TMP DP  RH WIND       PRES   REMARKS
FREDERICKSBRG* PTSUNNY   51  32  48 SW7       29.82R
STAFFORD*      PTSUNNY   50  30  46 CALM      29.87R

$$

NCZ024-NYZ072-PAZ021-071-VAZ022-071-252100-
OTHER REGIONAL OBSERVATIONS

CITY           SKY/WX    TMP DP  RH WIND       PRES   REMARKS
NEW YORK CITY  MOSUNNY   42  11  28 NW10G20   29.81R
PHILADELPHIA   PTSUNNY   46  30  53 W14       29.82R
PITTSBURGH     LGT SNOW  35  32  88 CALM      29.77R FOG
ROANOKE        CLOUDY    49  31  49 E7        29.79F
RICHMOND       PTSUNNY   53  32  44 S7        29.84F
RALEIGH        MOSUNNY   54  32  43 S8        29.86F

$$

ANZ530>537-252100-
MARINE OBSERVATIONS

STATION/POSITION TIME  TEMP    WIND        PRES
                       AIR SEA DIR/SP/G
                 (UTC) (F)     (DEG/KT/KT) (MB)
THOMAS PT LIGHT  2000   45 37  120/  2/  2 1010.9F
BALT KEY BRIDGE  2000   46     290/  5/  5 1009.3F
COVE POINT       2000   48     210/  5/  7 1010.1R
LEWISETTA        2000   49 40  190/  3/  5 1010.1S
SOLOMONS ISLAND  2000      38                N/A
PINEY POINT      2000          170/  5/  5   N/A

$$




USA.gov is the U.S. government's official web portal to all federal, state and local government web resources and services.